Location: Madrid
(40.4000°N, 3.6830°W)
Time: 01:44:21
(UTC+02:00)

ISS - Pass Details

Date: 20 July 2019
Orbit: 409 x 418 km, 51.6° (Epoch: 23 July)

Event Time Altitude Azimuth Distance (km) Brightness Sun altitude
Rises 04:38:32 0° 307° (NW) 2,345 0.1 -21.0°
Reaches altitude 10° 04:40:38 10° 308° (NW) 1,479 -1.0 -20.8°
Enters shadow 04:41:07 14° 308° (NW) 1,279 -1.3 -20.7°
Exits shadow 04:45:46 25° 123° (ESE) 879 -2.1 -20.2°
Drops below altitude 10° 04:47:15 10° 125° (SE) 1,468 -1.0 -20.1°
Sets 04:49:19 0° 126° (SE) 2,324 0.0 -19.8°
